Charlottesville, VA

7:23 AM EDT on May 25, 2017 (GMT -0400)
Charlottesville-Albemarle

Weather History for KCHO - December, 2012

Change the Weather History Date:

Monday, December 24, 2012

  Actual Average Record
Temperature  
Mean Temperature 36 °F 36 °F  
Max Temperature 44 °F 45 °F 72 °F (1933)
Min Temperature 28 °F 27 °F 7 °F (1989)
Degree Days  
Heating Degree Days 29 29  
Month to date heating degree days 465 638  
Since 1 July heating degree days 1374 1529  
Cooling Degree Days 0 0  
Month to date cooling degree days 0 0  
Year to date cooling degree days 1604 1035  
Moisture  
Dew Point 30 °F    
Average Humidity 72    
Maximum Humidity 100    
Minimum Humidity 43    
Precipitation  
Precipitation 0.15 in 0.10 in 0.36 in (2014)
Month to date precipitation 1.50 2.66  
Year to date precipitation 35.23 42.22  
Sea Level Pressure  
Sea Level Pressure 29.96 in    
Wind  
Wind Speed 2 mph (NNE)    
Max Wind Speed 8 mph    
Max Gust Speed 9 mph    
Visibility 4 miles    
Events Rain , Snow    
T = Trace of Precipitation, MM = Missing Value Source: NWS Daily Summary

Daily Weather History Graph

Daily Weather History Graph

Search for Another Location

Airport or City:

Trip Planner

Search our weather history database for the weather conditions in past years. The results will help you decide how hot, cold, wet, or windy it might be!

Date:

Astronomy

Dec. 24, 2012 Rise Set
Actual Time 7:28 AM EST 4:59 PM EST
Civil Twilight 6:58 AM EST 5:28 PM EST
Nautical Twilight 6:25 AM EST 6:01 PM EST
Astronomical Twilight 5:53 AM EST 6:34 PM EST
Moon 2:24 PM EST (12/24) 4:06 AM EST (12/24)
Length of Visible Light 10h 30m
Length of Day
9h 31m
Waxing Gibbous, 88% of the Moon is Illuminated
Dec 24
Waxing Gibbous
Dec 28
Full
Jan 4
Last Quarter
Jan 11
New
Jan 18
First Quarter

Hourly Weather History & Observations

Time (EST) Temp. Windchill Dew Point Humidity Pressure Visibility Wind Dir Wind Speed Gust Speed Precip Events Conditions
12:53 AM 43.0 °F 41.3 °F 21.9 °F 43% 29.96 in 10.0 mi WSW 3.5 mph - N/A   Clear
1:53 AM 30.9 °F 26.2 °F 21.9 °F 69% 29.98 in 10.0 mi NE 4.6 mph - N/A   Clear
2:53 AM 36.0 °F 33.3 °F 23.0 °F 59% 29.99 in 10.0 mi NW 3.5 mph - N/A   Clear
3:53 AM 30.9 °F - 21.9 °F 69% 29.99 in 10.0 mi Calm Calm - N/A   Clear
4:53 AM 30.9 °F 27.5 °F 21.9 °F 69% 30.01 in 10.0 mi NNE 3.5 mph - N/A   Clear
5:53 AM 28.0 °F 20.8 °F 21.9 °F 78% 30.00 in 10.0 mi NNE 6.9 mph - N/A   Clear
6:53 AM 32.0 °F 28.7 °F 21.9 °F 66% 30.02 in 10.0 mi North 3.5 mph - N/A   Clear
7:53 AM 34.0 °F 28.8 °F 23.0 °F 64% 30.03 in 10.0 mi NNW 5.8 mph - N/A   Mostly Cloudy
8:53 AM 34.0 °F - 25.0 °F 70% 30.06 in 10.0 mi Calm Calm - N/A   Overcast
9:53 AM 35.1 °F - 27.0 °F 72% 30.08 in 10.0 mi Calm Calm - 0.00 in   Overcast
10:38 AM 35.6 °F - 28.4 °F 75% 30.07 in 4.0 mi Calm Calm - 0.00 in Snow Light Snow
10:48 AM 35.6 °F 32.8 °F 28.4 °F 75% 30.07 in 2.5 mi SSE 3.5 mph - 0.00 in Snow Light Snow
10:53 AM 35.1 °F - 28.9 °F 78% 30.08 in 2.5 mi Calm Calm - 0.00 in Snow Light Snow
11:01 AM 33.8 °F - 28.4 °F 81% 30.06 in 1.2 mi Calm Calm - 0.00 in Snow Light Snow
11:24 AM 33.8 °F 29.6 °F 30.2 °F 87% 30.03 in 0.8 mi North 4.6 mph - 0.00 in Snow Light Snow
11:45 AM 33.8 °F 29.6 °F 30.2 °F 87% 30.01 in 2.0 mi North 4.6 mph - 0.00 in Snow Light Snow
11:53 AM 33.1 °F 27.7 °F 30.9 °F 92% 30.02 in 3.0 mi NNE 5.8 mph - 0.01 in Snow Light Snow
12:00 PM 33.8 °F 29.6 °F 30.2 °F 87% 30.00 in 2.0 mi North 4.6 mph - 0.00 in Snow Light Snow
12:20 PM 33.8 °F 29.6 °F 30.2 °F 87% 30.00 in 1.0 mi North 4.6 mph - 0.00 in Snow Light Snow
12:29 PM 33.8 °F 29.6 °F 30.2 °F 87% 29.99 in 1.2 mi North 4.6 mph - 0.00 in Snow Light Snow
12:53 PM 33.1 °F 27.7 °F 30.9 °F 92% 29.97 in 2.0 mi NNE 5.8 mph - 0.01 in Snow Light Snow
1:00 PM 33.8 °F 28.6 °F 30.2 °F 87% 29.96 in 2.5 mi NNE 5.8 mph - 0.00 in   Overcast
1:49 PM 33.8 °F 29.6 °F 32.0 °F 93% 29.92 in 2.0 mi NNE 4.6 mph - 0.04 in Rain Light Rain
1:53 PM 33.1 °F 30.0 °F 30.9 °F 92% 29.94 in 2.0 mi North 3.5 mph - 0.04 in Rain Light Rain
2:00 PM 33.8 °F 30.8 °F 32.0 °F 93% 29.93 in 3.0 mi North 3.5 mph - 0.01 in Rain Light Rain
2:18 PM 33.8 °F 29.6 °F 32.0 °F 93% 29.92 in 2.5 mi NNE 4.6 mph - 0.02 in Rain Light Rain
2:53 PM 33.1 °F - 32.0 °F 96% 29.94 in 2.5 mi Calm Calm - 0.03 in Rain Light Rain
3:53 PM 34.0 °F - 30.9 °F 89% 29.93 in 2.5 mi Calm Calm - 0.02 in Rain Light Rain
4:53 PM 34.0 °F 31.0 °F 32.0 °F 92% 29.92 in 2.5 mi ESE 3.5 mph - 0.00 in Rain Light Rain
5:00 PM 33.8 °F - 32.0 °F 93% 29.91 in 1.8 mi Calm Calm - 0.01 in Rain Light Rain
5:06 PM 33.8 °F 30.8 °F 32.0 °F 93% 29.91 in 2.0 mi East 3.5 mph - 0.02 in Rain Light Rain
5:40 PM 33.8 °F - 32.0 °F 93% 29.90 in 2.0 mi Calm Calm - 0.04 in Rain Light Rain
5:53 PM 34.0 °F 31.0 °F 32.0 °F 92% 29.91 in 2.0 mi East 3.5 mph - 0.04 in Rain Light Rain
6:53 PM 34.0 °F - 32.0 °F 92% 29.91 in 2.0 mi Calm Calm - 0.00 in   Overcast
7:45 PM 33.8 °F - 33.8 °F 100% 29.90 in 1.2 mi Calm Calm - N/A   Overcast
7:53 PM 34.0 °F - 32.0 °F 92% 29.91 in 1.5 mi Calm Calm - N/A   Overcast
8:11 PM 33.8 °F - 33.8 °F 100% 29.90 in 2.0 mi Calm Calm - N/A   Overcast
8:53 PM 34.0 °F - 32.0 °F 92% 29.91 in 2.0 mi Calm Calm - N/A   Overcast
9:43 PM 33.8 °F - 32.0 °F 93% 29.89 in 2.0 mi Calm Calm - N/A   Overcast
9:53 PM 34.0 °F - 33.1 °F 96% 29.91 in 2.0 mi Calm Calm - N/A   Overcast
10:21 PM 33.8 °F - 33.8 °F 100% 29.90 in 1.5 mi Calm Calm - N/A   Overcast
10:53 PM 34.0 °F - 33.1 °F 96% 29.90 in 1.5 mi Calm Calm - N/A   Overcast
11:28 PM 33.8 °F - 33.8 °F 100% 29.89 in 2.0 mi Calm Calm - N/A   Overcast
11:42 PM 33.8 °F - 33.8 °F 100% 29.89 in 1.8 mi Calm Calm - N/A   Overcast
11:53 PM 34.0 °F - 32.0 °F 92% 29.90 in 1.5 mi Calm Calm - N/A   Overcast